Location: Burtsch�tz
(51.0528°N, 12.1764°E)
Time: 07:22:35
(UTC+00:00)

ERBS - Pass Details

Date: 29 October 2020
Orbit: 406 x 422 km, 57.0° (Epoch: 01 December)

Event Time Altitude Azimuth Distance (km) Brightness Sun altitude
Rises 16:41:11 0° 286° (WNW) 2,365 7.3 -8.5°
Reaches altitude 10° 16:43:27 10° 298° (WNW) 1,505 5.9 -8.9°
Maximum altitude 16:46:26 28° 0° (N) 821 3.6 -9.3°
Enters shadow 16:48:59 13° 58° (ENE) 1,362 4.3 -9.7°
